Location: Little Suamico
(44.7175°N, 88.0093°W)
Time: 01:54:09
(UTC+00:00)

ISS - Visible Passes

Search period start: 20 April 2021 00:00
Search period end: 30 April 2021 00:00
Orbit: 418 x 421 km, 51.6° (Epoch: 19 April)

Date Brightness Start Highest point End Pass type
(mag) Time Alt. Az. Time Alt. Az. Time Alt. Az.
24 Apr -1.1 09:58:17 10° SSE 09:59:54 13° SE 10:01:32 10° ESE visible
26 Apr -2.4 09:58:32 10° SSW 10:01:36 33° SE 10:04:41 10° ENE visible
27 Apr -1.8 09:12:51 16° S 09:14:21 21° SE 09:16:58 10° E visible
28 Apr -1.2 08:27:20 13° SE 08:27:20 13° SE 08:28:49 10° ESE visible
28 Apr -3.7 10:00:18 11° WSW 10:03:30 87° SE 10:06:54 10° ENE visible
29 Apr -3.4 09:14:43 29° SSW 09:16:07 55° SE 09:19:27 10° ENE visible
